Commit Graph
4356 Commits
Author SHA1 Message Date
MihailRis a152237f26 add gfx.weather.get_current, get_current_data, get_fall_intencity 2025-02-28 05:23:29 +03:00
MihailRis 4d5b450145 add gfx.weather library & add weather.set command 2025-02-27 07:30:49 +03:00
MihailRisandGitHub aa80bbb14f Merge pull request #480 from MihailRis/despawned-entities-save-fix
fix: entity:despawn in on_save not preventing entity save
2025-02-27 01:20:36 +03:00
MihailRis 5607e0f039 fix: entity:despawn in on_save not preventing entity save 2025-02-26 16:35:23 +03:00
MihailRis 02d8d8d6bf weather change test 2025-02-26 12:19:47 +03:00
MihailRis 589518fb25 add fall.max_opacity, fall.opaque properties & update snow texture & weather mix test 2025-02-26 06:24:05 +03:00
MihailRis 18773b3230 fix sky sprites visibility 2025-02-26 05:04:49 +03:00
MihailRis b1bb595169 add fog preset 2025-02-26 05:04:13 +03:00
MihailRis e6ea4fe37e add fog_curve parameter & update shaders 2025-02-26 04:49:45 +03:00
MihailRis d7f20e7388 add snow preset 2025-02-26 03:16:02 +03:00
MihailRis 61a469aeb8 add rain preset 2025-02-26 03:03:14 +03:00
MihailRis 7b1c03c208 enable weather splash particles serialization 2025-02-26 03:02:50 +03:00
MihailRis fe503d1192 add weather intensity (WIP) 2025-02-26 02:24:16 +03:00
MihailRis 830e05733f minor refactor 2025-02-26 02:24:16 +03:00
MihailRis 7635fdf807 add rain noise & add rain splashes (WIP) 2025-02-26 02:24:16 +03:00
MihailRis 8dfc948fe3 update main shader 2025-02-26 02:24:16 +03:00
MihailRis 35cf07b0f0 add WeatherPreset 2025-02-26 02:24:16 +03:00
MihailRis 787011d164 optimize PrecipitationRenderer 2025-02-26 02:24:16 +03:00
MihailRis 64fd5d7504 refactor and fix 2025-02-26 02:24:16 +03:00
MihailRis 5cb119cc4c fix pause 2025-02-26 02:24:16 +03:00
MihailRis 0f33b9dd15 fix lights 2025-02-26 02:24:16 +03:00
MihailRis d36eb85dba snow test 2025-02-26 02:24:16 +03:00
MihailRis fa6e2e1b1d fix vertical uv mapping 2025-02-26 02:24:16 +03:00
MihailRis b4456fdb51 add PrecipitationRenderer (WIP) 2025-02-26 02:24:16 +03:00
MihailRisandGitHub fd59aa4f65 Merge pull request #476 from MihailRis/zip
ZIP Files
2025-02-26 01:21:19 +03:00
MihailRis 7facc33a7e cleanup 2025-02-26 00:22:57 +03:00
MihailRis b52cc1aea0 fix ZipFileDevice::list for root path 2025-02-25 23:04:31 +03:00
MihailRis bd614c5f2e enable deflate compression in io::write_zip 2025-02-25 22:49:31 +03:00
MihailRis 226ee40b5a add output versions of deflate and memory streams 2025-02-25 22:42:57 +03:00
MihailRisandGitHub da2fecb02e Merge pull request #478 from Onran0/main
doc: block.properties added to libblock.md
2025-02-25 11:37:01 +03:00
OnranandGitHub e253260b79 Update libblock.md 2025-02-25 14:09:28 +09:00
OnranandGitHub 6d80560aa9 Update libblock.md 2025-02-25 14:08:35 +09:00
MihailRisandGitHub bba66c33f2 Merge pull request #477 from ShadelessFox/canvas-data-fix
Canvas: Reuse image data instead of fetching it every time off the GPU
2025-02-25 02:57:14 +03:00
MihailRis 57d05bde57 add io::last_write_time & add io::write_zip 2025-02-25 02:03:01 +03:00
MihailRis edb581bee3 add io::copy, io::copy_all & fix ZipFileDevice::list 2025-02-24 21:00:23 +03:00
MihailRis 9cc55e30e3 add separateFunc ZipFileDevice constructor argument 2025-02-24 20:06:55 +03:00
MihailRis 310bef1723 implement ZipFileDevice::list 2025-02-23 04:16:02 +03:00
ShadelessFox f7fa9774d6 Update representation of RGBA 2025-02-22 17:50:21 +01:00
ShadelessFox 0b6ba2faee Reuse image data instead of fetching it every time off the GPU 2025-02-22 17:49:36 +01:00
MihailRis 58acc1b2ec implement ZipFileDevice methods (WIP) 2025-02-22 07:04:04 +03:00
MihailRis 9389d63a5f add deflate_istream 2025-02-22 07:03:18 +03:00
MihailRis 7f4b074d70 add ZipFileDevice (WIP) 2025-02-22 05:48:48 +03:00
MihailRis decb820cf9 add memory_istream 2025-02-22 05:47:27 +03:00
MihailRisandGitHub 8a8c1525fd Fix syntax highlighting unicode support (#475)
* convert BasicParser to a template

* fix syntax hightlighting with unicode characters
2025-02-22 01:01:20 +03:00
MihailRisandGitHub b61f594495 Merge pull request #474 from Xertis/patch-7
Bug fix content_menu.xml.lua
2025-02-21 21:47:23 +03:00
MihailRis 5e10afc9b5 fix: disabled bodies not skipping in entities raycast 2025-02-21 21:13:22 +03:00
XertisandGitHub 589ca50b4d Update content_menu.xml.lua 2025-02-21 20:02:38 +03:00
XertisandGitHub 15e143afb0 bug fix content_menu.xml.lua 2025-02-21 19:59:57 +03:00
MihailRis 0649419485 randomize rotatable plants in world generation 2025-02-21 19:35:37 +03:00
MihailRisandGitHub 721286c2ba Merge pull request #473 from MihailRis/new-inventory-funcs
Add new inventory funcs
2025-02-20 22:33:10 +03:00